SAS594 EBBR-EKCH

Flight info

Callsign SAS594
Flight time 1h 19m
Altitude 38000
Route NIK L191 VICOT N873 SPY DCT DOSUR/N0445F390 P729 TUDLO
Aircraft A20N/M-SDE2E3FGHIRWXY/LB1

Departure

Time 2026-04-25 10:56
Airport Brussels Airport (EBBR)

Arrival

Time 2026-04-25 12:16
Airport Copenhagen Kastrup Airport (EKCH)
Time Latitude Longitude Altitude Speed Heading
2026-04-25 10:42 50.90283 4.48574 184 ft 0 kts 335°
2026-04-25 10:48 50.90271 4.48583 192 ft 3 kts 336°
2026-04-25 10:48 50.90252 4.48595 201 ft 3 kts 340°
2026-04-25 10:48 50.90233 4.48605 199 ft 3 kts 347°
2026-04-25 10:48 50.90213 4.48610 198 ft 3 kts
2026-04-25 10:49 50.90198 4.48602 199 ft 2 kts 56°
2026-04-25 10:49 50.90195 4.48597 199 ft 0 kts 65°
2026-04-25 10:52 50.90200 4.48616 193 ft 6 kts 65°
2026-04-25 10:52 50.90226 4.48704 184 ft 11 kts 65°
2026-04-25 10:52 50.90263 4.48833 186 ft 8 kts 65°
2026-04-25 10:52 50.90267 4.48846 194 ft 5 kts 65°
2026-04-25 10:53 50.90293 4.48938 191 ft 14 kts 65°
2026-04-25 10:53 50.90349 4.49129 198 ft 22 kts 65°
2026-04-25 10:53 50.90417 4.49363 197 ft 24 kts 65°
2026-04-25 10:53 50.90503 4.49601 184 ft 25 kts 38°
2026-04-25 10:54 50.90673 4.49683 190 ft 26 kts 14°
2026-04-25 10:54 50.90852 4.49755 190 ft 27 kts 15°
2026-04-25 10:54 50.91009 4.49882 183 ft 26 kts 30°
2026-04-25 10:54 50.91091 4.49937 181 ft 4 kts
2026-04-25 10:55 50.91139 4.49916 181 ft 10 kts 305°
2026-04-25 10:55 50.91139 4.49876 182 ft 1 kts 245°
2026-04-25 10:55 50.91083 4.49683 198 ft 52 kts 245°
2026-04-25 10:55 50.90836 4.48826 186 ft 115 kts 245°
2026-04-25 10:56 50.90434 4.47423 210 ft 160 kts 246°
2026-04-25 10:56 50.89998 4.45853 827 ft 148 kts 248°
2026-04-25 10:56 50.89806 4.44332 1402 ft 141 kts 282°
2026-04-25 10:56 50.90303 4.43021 1742 ft 147 kts 331°
2026-04-25 10:57 50.91288 4.42438 2146 ft 159 kts 349°
2026-04-25 10:57 50.92428 4.41994 2564 ft 179 kts 346°
2026-04-25 10:57 50.93660 4.41267 2984 ft 202 kts 338°
2026-04-25 10:57 50.94985 4.40183 3520 ft 226 kts 332°
2026-04-25 10:58 50.96397 4.38827 4162 ft 248 kts 330°
2026-04-25 10:58 50.97902 4.37299 4990 ft 261 kts 329°
2026-04-25 10:58 50.99441 4.35716 6002 ft 266 kts 329°
2026-04-25 10:58 51.01009 4.34109 6984 ft 271 kts 329°
2026-04-25 10:59 51.02610 4.32479 7976 ft 274 kts 329°
2026-04-25 10:59 51.04230 4.30836 8976 ft 278 kts 328°
2026-04-25 10:59 51.05874 4.29173 9986 ft 282 kts 328°
2026-04-25 10:59 51.07553 4.27474 10744 ft 294 kts 328°
2026-04-25 11:00 51.09352 4.25652 11113 ft 318 kts 328°
2026-04-25 11:00 51.11283 4.23696 11549 ft 336 kts 328°
2026-04-25 11:00 51.13250 4.21699 12361 ft 341 kts 328°
2026-04-25 11:00 51.15262 4.19653 13228 ft 346 kts 328°
2026-04-25 11:01 51.17276 4.17497 14032 ft 352 kts 324°
2026-04-25 11:01 51.19253 4.15157 14771 ft 356 kts 324°
2026-04-25 11:01 51.21266 4.12791 15486 ft 361 kts 323°
2026-04-25 11:01 51.23304 4.10398 16199 ft 366 kts 323°
2026-04-25 11:02 51.25387 4.08003 16897 ft 371 kts 327°
2026-04-25 11:02 51.27738 4.06222 17567 ft 378 kts 341°
2026-04-25 11:02 51.30335 4.05419 18224 ft 385 kts 356°
2026-04-25 11:02 51.33000 4.05354 18847 ft 390 kts 359°
2026-04-25 11:03 51.35725 4.05315 19471 ft 393 kts 359°
2026-04-25 11:03 51.38478 4.05268 20063 ft 398 kts 358°
2026-04-25 11:03 51.41272 4.05215 20642 ft 403 kts 358°
2026-04-25 11:03 51.44095 4.05159 21210 ft 408 kts 358°
2026-04-25 11:04 51.46953 4.05415 21763 ft 414 kts
2026-04-25 11:04 51.49774 4.06463 22334 ft 420 kts 18°
2026-04-25 11:04 51.52492 4.08266 22883 ft 425 kts 25°
2026-04-25 11:04 51.54276 4.09601 23258 ft 428 kts 24°
2026-04-25 11:05 51.57923 4.12306 23961 ft 434 kts 24°
2026-04-25 11:05 51.60642 4.14319 24448 ft 437 kts 24°
2026-04-25 11:05 51.63421 4.16379 24923 ft 441 kts 24°
2026-04-25 11:05 51.66223 4.18462 25384 ft 444 kts 24°
2026-04-25 11:06 51.69043 4.20563 25863 ft 447 kts 24°
2026-04-25 11:06 51.71883 4.22682 26295 ft 451 kts 24°
2026-04-25 11:06 51.74743 4.24820 26741 ft 454 kts 24°
2026-04-25 11:06 51.77617 4.26973 27174 ft 457 kts 24°
2026-04-25 11:07 51.80514 4.29149 27603 ft 461 kts 24°
2026-04-25 11:07 51.83397 4.31315 28000 ft 464 kts 24°
2026-04-25 11:07 51.86332 4.33523 28392 ft 467 kts 24°
2026-04-25 11:07 51.89292 4.35754 28786 ft 470 kts 24°
2026-04-25 11:08 51.92269 4.38001 29174 ft 473 kts 24°
2026-04-25 11:08 51.95257 4.40259 29532 ft 476 kts 24°
2026-04-25 11:08 51.98273 4.42542 29879 ft 479 kts 24°
2026-04-25 11:08 52.01243 4.44793 30230 ft 481 kts 24°
2026-04-25 11:09 52.04286 4.47104 30563 ft 483 kts 24°
2026-04-25 11:09 52.07342 4.49427 30867 ft 486 kts 24°
2026-04-25 11:09 52.10375 4.51737 31167 ft 489 kts 24°
2026-04-25 11:09 52.13458 4.54088 31524 ft 490 kts 24°
2026-04-25 11:10 52.16545 4.56447 31932 ft 489 kts 24°
2026-04-25 11:10 52.18586 4.58009 32204 ft 489 kts 24°
2026-04-25 11:10 52.22713 4.61172 32732 ft 489 kts 24°
2026-04-25 11:10 52.25791 4.63533 33122 ft 489 kts 24°
2026-04-25 11:11 52.28870 4.65900 33534 ft 488 kts 24°
2026-04-25 11:11 52.31948 4.68270 33891 ft 488 kts 24°
2026-04-25 11:11 52.34980 4.70607 34231 ft 488 kts 24°
2026-04-25 11:11 52.38087 4.73007 34579 ft 487 kts 24°
2026-04-25 11:12 52.41109 4.75345 34933 ft 485 kts 24°
2026-04-25 11:12 52.44154 4.77703 35255 ft 484 kts 24°
2026-04-25 11:12 52.47202 4.80067 35556 ft 484 kts 23°
2026-04-25 11:12 52.50235 4.82450 35854 ft 483 kts 26°
2026-04-25 11:13 52.53121 4.85279 36156 ft 483 kts 33°
2026-04-25 11:13 52.55779 4.88673 36421 ft 484 kts 41°
2026-04-25 11:13 52.58182 4.92560 36679 ft 484 kts 46°
2026-04-25 11:13 52.60498 4.96572 36944 ft 483 kts 46°
2026-04-25 11:14 52.62824 5.00566 37211 ft 483 kts 45°
2026-04-25 11:14 52.65118 5.04506 37453 ft 482 kts 45°
2026-04-25 11:14 52.67437 5.08497 37695 ft 482 kts 45°
2026-04-25 11:14 52.69752 5.12496 37941 ft 481 kts 45°
2026-04-25 11:15 52.72054 5.16486 38173 ft 480 kts 45°
2026-04-25 11:15 52.76653 5.24484 38205 ft 479 kts 46°
2026-04-25 11:16 52.83514 5.36472 38204 ft 478 kts 45°
2026-04-25 11:16 52.88052 5.44432 38199 ft 477 kts 45°
2026-04-25 11:17 52.92601 5.52439 38191 ft 477 kts 45°
2026-04-25 11:17 52.97142 5.60457 38191 ft 476 kts 45°
2026-04-25 11:18 53.01679 5.68495 38186 ft 476 kts 45°
2026-04-25 11:18 53.06182 5.76499 38193 ft 476 kts 45°
2026-04-25 11:19 53.10701 5.84558 38191 ft 476 kts 45°
2026-04-25 11:19 53.15212 5.92629 38193 ft 475 kts 45°
2026-04-25 11:20 53.19714 6.00711 38194 ft 475 kts 45°
2026-04-25 11:20 53.24177 6.08750 38194 ft 474 kts 45°
2026-04-25 11:21 53.28660 6.16851 38189 ft 474 kts 45°
2026-04-25 11:21 53.33122 6.24941 38182 ft 473 kts 45°
2026-04-25 11:22 53.36823 6.31672 38182 ft 472 kts 45°
2026-04-25 11:22 53.42015 6.41145 38181 ft 471 kts 45°
2026-04-25 11:23 53.46439 6.49246 38182 ft 470 kts 45°
2026-04-25 11:23 53.50845 6.57342 38173 ft 469 kts 45°
2026-04-25 11:24 53.55245 6.65452 38176 ft 469 kts 45°
2026-04-25 11:24 53.57426 6.69504 38373 ft 463 kts 42°
2026-04-25 11:24 53.59525 6.73418 38247 ft 450 kts 41°
2026-04-25 11:25 53.61596 6.77272 38172 ft 437 kts 41°
2026-04-25 11:25 53.63644 6.81072 38169 ft 440 kts 41°
2026-04-25 11:25 53.67807 6.88789 38161 ft 447 kts 41°
2026-04-25 11:26 53.71977 6.96575 38165 ft 446 kts 41°
2026-04-25 11:26 53.76102 7.04301 38162 ft 446 kts 41°
2026-04-25 11:27 53.80255 7.12101 38157 ft 446 kts 41°
2026-04-25 11:27 53.83725 7.18637 38150 ft 446 kts 41°
2026-04-25 11:28 53.88538 7.27732 38154 ft 446 kts 41°
2026-04-25 11:28 53.92671 7.35571 38147 ft 446 kts 41°
2026-04-25 11:29 53.96806 7.43438 38143 ft 446 kts 41°
2026-04-25 11:29 54.00932 7.51313 38139 ft 446 kts 41°
2026-04-25 11:30 54.05053 7.59206 38132 ft 446 kts 41°
2026-04-25 11:30 54.09174 7.67125 38124 ft 446 kts 41°
2026-04-25 11:31 54.13266 7.75013 38129 ft 447 kts 41°
2026-04-25 11:31 54.17385 7.82979 38126 ft 447 kts 41°
2026-04-25 11:32 54.21494 7.90952 38120 ft 447 kts 41°
2026-04-25 11:32 54.25603 7.98951 38118 ft 448 kts 41°
2026-04-25 11:33 54.29710 8.06973 38108 ft 448 kts 41°
2026-04-25 11:33 54.33782 8.14954 38106 ft 448 kts 41°
2026-04-25 11:34 54.37881 8.23014 38098 ft 448 kts 41°
2026-04-25 11:34 54.41976 8.31094 38096 ft 449 kts 41°
2026-04-25 11:35 54.46071 8.39200 38083 ft 449 kts 41°
2026-04-25 11:35 54.50163 8.47327 38082 ft 449 kts 42°
2026-04-25 11:36 54.54247 8.55465 38080 ft 449 kts 42°
2026-04-25 11:36 54.58328 8.63624 38073 ft 450 kts 42°
2026-04-25 11:37 54.62408 8.71810 38063 ft 450 kts 42°
2026-04-25 11:37 54.66455 8.79957 38055 ft 450 kts 42°
2026-04-25 11:38 54.70533 8.88193 38052 ft 450 kts 41°
2026-04-25 11:38 54.74603 8.96440 38044 ft 451 kts 41°
2026-04-25 11:39 54.78670 9.04705 38044 ft 451 kts 41°
2026-04-25 11:39 54.82735 9.12985 38024 ft 451 kts 41°
2026-04-25 11:40 54.86809 9.21295 38019 ft 451 kts 41°
2026-04-25 11:40 54.90953 9.29471 38006 ft 450 kts 40°
2026-04-25 11:41 54.95110 9.37630 38001 ft 451 kts 40°
2026-04-25 11:41 54.99234 9.45783 37994 ft 452 kts 40°
2026-04-25 11:42 55.03378 9.54016 37989 ft 452 kts 40°
2026-04-25 11:42 55.06824 9.60894 37993 ft 454 kts 41°
2026-04-25 11:43 55.10405 9.70154 37990 ft 468 kts 55°
2026-04-25 11:43 55.12865 9.80824 37980 ft 480 kts 66°
2026-04-25 11:44 55.14856 9.91954 37976 ft 480 kts 65°
2026-04-25 11:44 55.16849 10.03082 37748 ft 478 kts 66°
2026-04-25 11:45 55.17835 10.08645 37146 ft 479 kts 66°
2026-04-25 11:45 55.18822 10.14234 36329 ft 482 kts 65°
2026-04-25 11:45 55.19816 10.19880 35424 ft 487 kts 65°
2026-04-25 11:45 55.20816 10.25585 34491 ft 493 kts 65°
2026-04-25 11:46 55.21825 10.31362 33500 ft 498 kts 65°
2026-04-25 11:46 55.22839 10.37184 32390 ft 503 kts 65°
2026-04-25 11:46 55.23860 10.43069 31284 ft 508 kts 66°
2026-04-25 11:46 55.24892 10.49034 30192 ft 513 kts 66°
2026-04-25 11:47 55.25928 10.55051 29006 ft 517 kts 66°
2026-04-25 11:47 55.26958 10.61069 28171 ft 514 kts 67°
2026-04-25 11:47 55.27977 10.67049 27419 ft 508 kts 67°
2026-04-25 11:47 55.28976 10.72888 26681 ft 504 kts 67°
2026-04-25 11:48 55.29983 10.78760 25941 ft 500 kts 67°
2026-04-25 11:48 55.30978 10.84571 25217 ft 496 kts 67°
2026-04-25 11:48 55.31964 10.90352 24511 ft 492 kts 67°
2026-04-25 11:48 55.32940 10.96092 23831 ft 488 kts 67°
2026-04-25 11:49 55.33900 11.01793 23102 ft 485 kts 68°
2026-04-25 11:49 55.34842 11.07457 22397 ft 480 kts 68°
2026-04-25 11:49 55.35765 11.13044 21703 ft 475 kts 68°
2026-04-25 11:49 55.36682 11.18606 21015 ft 470 kts 68°
2026-04-25 11:50 55.37586 11.24094 20333 ft 465 kts 68°
2026-04-25 11:50 55.38483 11.29557 19676 ft 461 kts 68°
2026-04-25 11:50 55.39369 11.34966 19039 ft 457 kts 68°
2026-04-25 11:50 55.40224 11.40218 18767 ft 444 kts 68°
2026-04-25 11:51 55.41055 11.45351 18600 ft 428 kts 68°
2026-04-25 11:51 55.41854 11.50304 18445 ft 413 kts 67°
2026-04-25 11:51 55.42627 11.55095 18305 ft 400 kts 67°
2026-04-25 11:51 55.43394 11.59709 18160 ft 383 kts 62°
2026-04-25 11:52 55.44583 11.63735 17778 ft 361 kts 43°
2026-04-25 11:52 55.46260 11.66844 17310 ft 343 kts 30°
2026-04-25 11:52 55.48060 11.69610 16859 ft 341 kts 30°
2026-04-25 11:52 55.49837 11.72361 16420 ft 339 kts 30°
2026-04-25 11:53 55.51568 11.75061 15890 ft 335 kts 31°
2026-04-25 11:53 55.53301 11.77775 15278 ft 332 kts 31°
2026-04-25 11:53 55.55019 11.80471 14691 ft 328 kts 31°
2026-04-25 11:53 55.56721 11.83145 14102 ft 325 kts 31°
2026-04-25 11:54 55.58403 11.85792 13511 ft 322 kts 31°
2026-04-25 11:54 55.60064 11.88409 12886 ft 318 kts 31°
2026-04-25 11:54 55.63353 11.93596 11870 ft 315 kts 32°
2026-04-25 11:55 55.64977 11.96165 11465 ft 312 kts 32°
2026-04-25 11:55 55.66592 11.98725 11119 ft 308 kts 32°
2026-04-25 11:55 55.68176 12.01238 10801 ft 304 kts 32°
2026-04-25 11:55 55.69742 12.03724 10475 ft 302 kts 31°
2026-04-25 11:56 55.71311 12.06209 10149 ft 302 kts 32°
2026-04-25 11:56 55.72750 12.08885 9827 ft 311 kts 48°
2026-04-25 11:56 55.73585 12.12501 9472 ft 327 kts 74°
2026-04-25 11:56 55.73647 12.16571 9135 ft 332 kts 92°
2026-04-25 11:57 55.73305 12.20618 8779 ft 330 kts 98°
2026-04-25 11:57 55.72900 12.24608 8431 ft 327 kts 97°
2026-04-25 11:57 55.72540 12.28569 8083 ft 323 kts 95°
2026-04-25 11:57 55.72236 12.32487 7745 ft 319 kts 94°
2026-04-25 11:58 55.71970 12.36381 7383 ft 317 kts 93°
2026-04-25 11:58 55.71721 12.40251 7051 ft 314 kts 93°
2026-04-25 11:58 55.71480 12.44088 6721 ft 311 kts 93°
2026-04-25 11:58 55.71246 12.47829 6390 ft 307 kts 92°
2026-04-25 11:59 55.71355 12.51529 6064 ft 296 kts 71°
2026-04-25 11:59 55.72120 12.54862 5756 ft 291 kts 56°
2026-04-25 11:59 55.73039 12.58026 5536 ft 285 kts 56°
2026-04-25 12:00 55.74975 12.64171 5037 ft 281 kts 45°
2026-04-25 12:00 55.76317 12.66610 4762 ft 270 kts 32°
2026-04-25 12:00 55.79172 12.70976 4389 ft 270 kts 36°
2026-04-25 12:01 55.80257 12.73776 4166 ft 285 kts 63°
2026-04-25 12:01 55.80576 12.77285 3975 ft 293 kts 89°
2026-04-25 12:01 55.80121 12.80823 3750 ft 296 kts 116°
2026-04-25 12:01 55.78877 12.83681 3553 ft 291 kts 145°
2026-04-25 12:02 55.75288 12.84564 3300 ft 255 kts 212°
2026-04-25 12:02 55.73854 12.83007 3189 ft 237 kts 225°
2026-04-25 12:02 55.72623 12.81194 3023 ft 221 kts 231°
2026-04-25 12:03 55.71509 12.79425 2771 ft 210 kts 229°
2026-04-25 12:03 55.70409 12.77816 2449 ft 200 kts 226°
2026-04-25 12:03 55.69324 12.76420 1990 ft 186 kts 225°
2026-04-25 12:03 55.68232 12.75261 1541 ft 178 kts 217°
2026-04-25 12:04 55.67230 12.74314 1377 ft 145 kts 225°
2026-04-25 12:04 55.66479 12.73350 1214 ft 125 kts 231°
2026-04-25 12:04 55.65858 12.72305 1055 ft 122 kts 237°
2026-04-25 12:04 55.65297 12.71201 877 ft 122 kts 238°
2026-04-25 12:05 55.64704 12.70105 655 ft 124 kts 233°
2026-04-25 12:05 55.64054 12.69100 478 ft 124 kts 229°
2026-04-25 12:05 55.63406 12.68112 336 ft 122 kts 234°
2026-04-25 12:05 55.62761 12.67098 163 ft 124 kts 232°
2026-04-25 12:06 55.62125 12.66116 43 ft 118 kts 232°
2026-04-25 12:06 55.61417 12.65025 376 ft 147 kts 229°
2026-04-25 12:06 55.60591 12.63729 1074 ft 167 kts 229°
2026-04-25 12:06 55.59641 12.62574 2122 ft 172 kts 220°
2026-04-25 12:07 55.58546 12.61476 2714 ft 196 kts 218°
2026-04-25 12:07 55.57257 12.60395 2938 ft 215 kts 201°
2026-04-25 12:07 55.55712 12.60515 3008 ft 234 kts 167°
2026-04-25 12:07 55.54291 12.62041 3012 ft 243 kts 146°
2026-04-25 12:08 55.52972 12.63917 3008 ft 243 kts 145°
2026-04-25 12:08 55.51663 12.65790 3001 ft 242 kts 145°
2026-04-25 12:08 55.50354 12.67663 2860 ft 243 kts 145°
2026-04-25 12:08 55.49029 12.69557 2484 ft 248 kts 145°
2026-04-25 12:09 55.47675 12.71492 2134 ft 251 kts 145°
2026-04-25 12:09 55.46424 12.73568 1995 ft 246 kts 126°
2026-04-25 12:09 55.45861 12.76304 2016 ft 245 kts 91°
2026-04-25 12:09 55.46029 12.79230 2003 ft 236 kts 74°
2026-04-25 12:10 55.46414 12.82052 2008 ft 237 kts 70°
2026-04-25 12:10 55.46870 12.84826 1993 ft 232 kts 58°
2026-04-25 12:10 55.47847 12.86929 2000 ft 216 kts 24°
2026-04-25 12:10 55.49188 12.87661 2003 ft 196 kts 348°
2026-04-25 12:11 55.50488 12.87129 1991 ft 191 kts 335°
2026-04-25 12:11 55.51747 12.86426 2008 ft 190 kts 335°
2026-04-25 12:11 55.53007 12.85718 2003 ft 190 kts 335°
2026-04-25 12:11 55.54195 12.84793 1998 ft 184 kts 320°
2026-04-25 12:12 55.55116 12.83313 2005 ft 178 kts 307°
2026-04-25 12:12 55.55616 12.82180 2005 ft 167 kts 303°
2026-04-25 12:12 55.56421 12.80079 1892 ft 148 kts 300°
2026-04-25 12:12 55.56955 12.78644 1708 ft 128 kts 301°
2026-04-25 12:13 55.57403 12.77437 1532 ft 107 kts 301°
2026-04-25 12:13 55.57805 12.76348 1386 ft 108 kts 300°
2026-04-25 12:13 55.58212 12.75253 1240 ft 106 kts 300°
2026-04-25 12:13 55.58615 12.74163 1090 ft 106 kts 300°
2026-04-25 12:14 55.59018 12.73076 936 ft 106 kts 301°
2026-04-25 12:14 55.59426 12.71976 770 ft 108 kts 301°
2026-04-25 12:14 55.59840 12.70859 608 ft 110 kts 300°
2026-04-25 12:14 55.60261 12.69725 466 ft 111 kts 300°
2026-04-25 12:15 55.60701 12.68536 324 ft 120 kts 301°
2026-04-25 12:15 55.61150 12.67348 144 ft 114 kts 300°
2026-04-25 12:15 55.61579 12.66181 28 ft 110 kts 301°
2026-04-25 12:15 55.61905 12.65294 23 ft 59 kts 306°
2026-04-25 12:16 55.62026 12.65014 23 ft 10 kts 335°
2026-04-25 12:16 55.62110 12.65065 25 ft 5 kts 33°
2026-04-25 12:16 55.62116 12.65072 26 ft 0 kts 33°
2026-04-25 12:16 55.62136 12.65094 24 ft 8 kts 33°
2026-04-25 12:17 55.62199 12.65167 27 ft 13 kts 33°
2026-04-25 12:17 55.62297 12.65202 26 ft 16 kts
2026-04-25 12:17 55.62413 12.65200 27 ft 18 kts 356°
2026-04-25 12:17 55.62536 12.65182 25 ft 18 kts 359°
2026-04-25 12:18 55.62640 12.65206 23 ft 11 kts 37°
2026-04-25 12:18 55.62681 12.65242 23 ft 1 kts
2026-04-25 12:18 55.62703 12.65245 27 ft 5 kts
2026-04-25 12:18 55.62720 12.65249 27 ft 2 kts
2026-04-25 12:19 55.62726 12.65250 26 ft 0 kts